Wetbulb
41.09 41.52 41.98 42.12 42.52 43.00 43.20 43.59 43.80 44.18 44.45 44.67 45.19 45.58 45.98 46.54 47.04 47.34 48.94 50.45 50.86 51.02 50.93 49.64 48.92 49.47 48.80 48.44 47.30 46.52 45.66 44.66 41.94 44.59 41.99 37.33 34.74 34.70 34.92 35.82 36.30 36.36 37.05
39.73 40.09 40.10 40.32 40.36 40.53 40.77 41.34 41.90 42.10 42.54 42.70 42.77 42.98 43.68 44.49 45.34 45.40 46.10 46.90 47.63 47.64 48.51 48.43 48.08 47.67 46.72 47.89 47.31 45.71 44.61 44.55 42.87 41.26 43.43 33.41 33.02 33.35 33.75 32.59 33.73 34.61 34.65
38.41 38.59 38.81 38.59 38.43 38.37 38.40 38.69 38.96 39.31 39.39 39.95 40.19 40.53 41.34 42.26 43.11 44.11 45.12 45.80 46.54 47.36 47.22 46.29 46.60 46.72 44.58 45.14 44.81 44.75 43.34 43.35 42.85 40.95 40.76 30.77 31.03 31.19 30.26 31.11 31.61 32.23 32.85
37.19 37.24 37.18 36.93 36.63 36.63 36.85 36.95 36.97 36.87 37.20 37.84 38.07 38.25 38.71 39.39 40.11 41.36 43.14 44.51 44.81 45.09 45.45 45.92 45.74 43.88 44.06 43.51 41.93 42.33 41.61 40.27 39.53 38.96 38.62 31.05 29.31 29.69 30.12 28.67 28.02 30.00 30.18
35.61 35.59 35.56 35.45 35.07 34.64 34.56 34.30 34.38 34.39 35.38 35.63 35.86 36.37 36.61 36.48 37.98 38.90 39.05 40.30 40.79 41.56 42.02 42.10 42.96 41.87 39.56 42.25 40.14 40.45 39.01 38.04 38.04 35.90 35.93 29.38 27.97 27.33 27.16 28.58 27.79 28.29 28.80
34.03 33.71 33.95 33.14 32.54 32.36 32.35 32.34 32.62 33.10 33.52 33.83 34.01 34.21 34.39 36.04 37.96 38.63 38.76 37.58 37.38 36.79 37.82 38.78 37.66 35.48 36.94 38.69 40.23 40.90 39.87 36.94 35.17 35.14 34.91 32.11 29.71 28.33 28.87 27.98 27.32 25.46 23.75
32.45 31.84 31.18 31.15 30.37 30.63 30.53 30.49 30.88 31.39 31.62 31.71 32.20 32.61 32.81 33.51 35.85 37.46 37.47 36.31 36.00 36.57 36.26 35.71 35.13 34.66 34.20 35.07 36.58 38.19 38.49 39.81 40.13 34.81 33.51 31.43 29.42 29.28 29.25 28.44 28.13 27.77 26.87
30.69 30.24 29.34 29.58 28.78 28.48 28.18 28.47 29.21 29.62 29.44 29.91 30.26 30.78 30.68 31.29 34.91 36.19 36.50 35.47 35.43 35.56 35.35 34.74 33.87 33.74 33.65 32.62 32.89 32.86 33.18 33.25 33.41 33.14 32.41 31.98 32.03 31.75 31.36 30.49 29.82 28.81 28.38
30.58 30.30 29.40 28.17 26.93 26.75 25.57 26.73 27.29 27.71 27.51 27.27 28.81 28.37 27.58 28.53 32.74 34.76 35.49 33.40 33.54 33.48 33.08 32.75 32.17 31.83 32.74 34.00 32.53 31.69 31.24 30.80 33.22 34.00 33.87 34.16 34.23 33.59 32.37 30.34 27.99 27.82 25.34
29.62 29.08 27.94 26.97 24.93 25.18 26.35 25.86 26.18 24.55 26.09 26.59 27.11 27.06 24.94 25.43 29.88 32.75 33.54 32.35 31.55 31.66 30.54 30.32 30.36 31.86 32.44 33.53 32.30 31.19 28.96 29.90 31.35 31.65 31.86 33.07 33.51 33.38 33.56 32.09 30.40 27.97 25.73
26.20 25.79 25.27 25.00 23.46 24.07 24.72 23.68 23.92 23.09 23.41 23.31 24.47 25.58 24.38 25.29 26.52 31.39 33.39 32.48 31.28 30.15 29.23 29.17 29.74 32.21 33.68 34.05 33.03 31.58 30.91 31.93 32.49 30.92 30.24 30.55 30.49 30.25 29.87 30.51 30.67 29.61 26.64
22.95 22.47 22.91 21.17 22.13 24.57 25.28 22.13 20.67 19.72 20.14 21.53 21.95 24.37 25.77 25.67 27.17 31.66 34.57 33.19 31.54 29.37 28.25 29.05 29.83 32.82 33.68 33.57 31.89 33.99 34.38 31.61 30.61 29.66 28.81 28.29 28.08 27.53 26.61 26.03 25.73 25.00 25.71
19.55 22.55 26.12 25.94 21.52 26.30 25.99 22.99 22.49 19.01 20.00 22.75 23.08 23.86 25.13 25.81 26.98 32.33 32.81 31.91 30.43 28.20 29.06 29.55 31.18 34.06 33.73 33.33 34.49 34.03 30.83 30.18 29.45 28.21 27.06 26.07 26.16 25.39 23.14 21.24 20.84 19.98 18.98
17.72 20.21 22.96 24.82 27.41 28.33 27.54 25.09 22.42 22.85 22.28 22.61 22.65 23.25 23.30 24.11 25.63 30.15 30.79 28.16 28.84 29.56 31.42 32.22 33.16 33.01 33.36 31.58 30.58 30.77 30.46 30.23 28.88 27.79 26.49 25.00 24.86 23.41 21.23 20.71 18.72 17.76 15.58
16.95 18.61 21.36 24.72 25.30 26.79 28.01 28.09 25.28 25.09 24.71 25.73 25.85 25.02 24.60 23.58 26.21 29.91 28.83 28.02 29.25 30.61 31.15 31.08 30.19 29.24 28.56 28.19 27.34 26.71 26.96 27.61 26.61 25.60 24.53 23.00 22.17 20.99 19.48 19.46 17.98 16.51 15.23
15.31 17.43 19.14 20.80 22.73 23.77 24.85 25.90 28.65 29.42 31.00 32.09 32.23 31.46 27.70 28.78 31.17 32.98 32.18 31.91 32.94 32.25 28.78 27.99 26.93 26.58 26.06 25.50 22.98 21.08 20.96 20.98 21.30 21.97 21.57 21.23 20.17 19.16 17.29 16.07 15.54 15.23 13.96
9.88 13.14 14.49 15.49 17.18 18.81 20.92 22.29 22.74 25.74 30.91 31.33 31.77 31.68 30.82 29.51 32.87 33.42 33.42 33.60 32.94 29.62 25.02 23.83 23.15 22.48 21.42 20.36 19.41 18.96 17.04 16.43 17.65 18.24 18.19 17.76 17.08 15.34 14.52 13.91 13.52 12.27 10.55
5.02 7.86 9.38 11.61 13.52 15.63 18.69 21.52 23.51 22.29 22.96 23.66 25.36 31.31 32.04 32.00 33.92 33.75 33.43 28.40 23.09 22.01 20.70 19.47 17.57 16.85 16.52 16.03 15.54 14.33 13.96 13.59 13.26 13.71 13.00 12.48 12.68 12.32 11.55 11.04 10.44 8.09 8.39
6.71 8.21 9.45 10.59 12.20 14.26 17.31 19.96 22.28 22.57 21.25 20.87 22.20 25.28 22.61 33.87 33.35 31.76 29.60 23.56 18.78 15.53 13.68 11.89 11.91 11.53 10.80 10.82 10.60 9.98 10.13 9.30 8.96 8.54 7.64 7.60 7.20 8.54 5.95 6.70 6.32 3.23 2.64
3.78 5.49 7.33 8.84 10.69 12.98 15.57 18.75 21.87 22.42 21.64 21.65 21.91 21.90 19.97 21.05 19.66 15.16 14.98 15.17 13.18 10.94 9.85 8.28 6.99 7.14 7.15 7.33 6.94 6.51 5.68 5.45 4.83 4.60 3.00 3.67 3.58 6.22 4.07 2.49 2.42 2.54 1.07
3.65 5.10 6.47 8.09 9.59 11.76 14.76 18.00 22.36 21.97 21.59 21.30 21.44 19.65 21.36 18.15 13.94 12.28 10.59 9.44 8.93 7.72 6.30 4.88 3.00 1.61 0.71 1.32 2.20 2.92 3.06 2.26 1.17 0.28 0.09 -1.80 -2.65 -1.83 -3.72 0.05 -2.58 -3.75 -3.06
2.16 3.85 6.09 7.76 10.37 12.36 15.26 19.24 22.71 21.32 20.85 19.50 18.14 20.89 21.30 12.69 9.86 7.51 4.95 2.93 1.53 1.06 1.78 1.17 -1.05 -1.39 -0.82 0.53 0.94 0.82 0.05 -1.78 -3.39 -4.61 -5.32 -7.79 -6.20 -6.54 -5.59 -4.72 -4.16 -5.33 -5.51
5.22 5.77 7.22 9.36 11.61 13.09 15.23 18.85 21.15 20.15 18.59 17.41 14.44 11.60 10.38 8.29 6.42 4.54 1.51 -0.49 -0.68 -1.83 -2.21 -0.85 -2.08 -4.00 -4.51 -4.56 -3.44 -0.91 -0.94 -2.58 -4.16 -7.35 -6.64 -7.43 -7.77 -6.40 -6.97 -4.98 -7.03 -7.13 -5.70
4.34 5.63 6.78 8.27 10.76 13.11 14.95 17.80 18.52 17.93 15.74 12.89 10.70 8.94 7.38 5.50 3.86 1.04 -0.60 -1.94 -2.65 -3.56 -2.65 -2.79 -2.32 -3.10 -5.54 -7.44 -9.21 -11.01 -10.59 -12.78 -13.16 -11.29 -9.48 -7.98 -8.34 -11.02 -8.84 -8.91 -7.21 -8.25 -6.61
4.35 5.23 6.53 8.10 9.95 12.11 13.71 13.72 12.94 12.10 10.78 9.43 7.16 5.57 3.59 2.91 1.19 -0.49 -1.22 -1.36 -2.45 -3.04 -4.04 -3.90 -3.65 -4.45 -5.37 -8.89 -8.92 -11.47 -13.77 -6.00 -14.92 -17.04 -15.08 -10.82 -9.99 -12.64 -12.35 -9.81 -10.04 -9.02 -8.45
2.66 3.58 4.85 6.19 7.66 9.21 10.08 9.61 8.81 8.27 6.91 5.89 4.71 3.76 3.20 2.10 0.54 -0.77 -1.86 -1.68 -1.69 -1.61 -2.69 -4.15 -5.31 -6.89 -7.71 -7.79 -9.66 -11.52 -11.99 -7.58 -11.16 -14.46 -13.50 -9.97 -10.43 -12.24 -13.31 -11.01 -13.32 -8.95 -8.51
MSLP
1022.66 1022.59 1022.55 1022.51 1022.40 1022.32 1022.25 1022.17 1021.89 1021.61 1021.29 1021.15 1020.97 1020.90 1020.78 1020.54 1020.29 1020.17 1019.90 1019.66 1019.38 1019.16 1019.11 1019.15 1019.11 1019.12 1019.12 1019.17 1019.22 1019.22 1019.25 1019.51 1018.81 1017.54 1018.37 1018.59 1019.05 1019.06 1019.03 1019.06 1019.23 1019.36 1019.60
1023.50 1023.20 1023.05 1023.03 1022.89 1022.90 1022.70 1022.43 1022.17 1021.78 1021.37 1021.20 1020.79 1020.75 1020.60 1020.28 1020.01 1019.76 1019.50 1019.30 1019.08 1018.72 1018.64 1018.48 1018.14 1018.31 1018.22 1018.32 1018.28 1018.20 1018.17 1018.18 1018.19 1017.13 1017.82 1018.18 1018.36 1018.58 1018.74 1018.89 1019.10 1019.34 1019.46
1023.77 1023.69 1023.49 1023.42 1023.33 1023.18 1022.92 1022.61 1022.26 1021.88 1021.44 1021.10 1021.23 1020.88 1020.59 1020.25 1019.86 1019.43 1019.16 1018.83 1018.47 1018.16 1017.85 1017.74 1017.65 1017.57 1017.46 1017.49 1017.41 1017.30 1017.29 1017.18 1017.30 1017.37 1017.16 1018.02 1018.29 1018.54 1018.93 1019.08 1019.08 1019.33 1019.42
1023.95 1023.91 1023.80 1023.72 1023.63 1023.43 1023.08 1022.76 1022.44 1022.08 1021.77 1021.52 1020.88 1020.57 1020.24 1019.94 1019.68 1019.42 1018.96 1018.38 1017.96 1017.68 1017.56 1017.31 1017.11 1016.92 1016.81 1016.80 1016.66 1016.47 1016.51 1016.51 1016.50 1016.56 1016.66 1017.33 1017.85 1018.22 1018.36 1018.54 1018.80 1018.78 1019.17
1024.28 1024.26 1024.30 1024.16 1024.01 1023.83 1023.51 1023.19 1022.79 1022.47 1022.05 1021.42 1020.83 1020.29 1019.91 1019.65 1019.22 1018.92 1018.54 1018.15 1017.78 1017.33 1017.01 1016.80 1016.69 1016.47 1016.30 1016.15 1016.03 1015.83 1016.15 1016.06 1016.08 1016.06 1016.21 1016.88 1017.21 1017.56 1017.57 1017.76 1018.26 1018.78 1019.41
1024.80 1024.88 1024.79 1024.59 1024.39 1024.17 1023.93 1023.64 1023.16 1022.62 1022.06 1021.56 1021.04 1020.58 1020.06 1019.45 1018.96 1018.54 1018.34 1017.91 1017.53 1017.21 1016.76 1016.40 1016.17 1016.10 1015.87 1015.76 1015.61 1015.42 1015.47 1015.48 1015.46 1015.60 1015.45 1015.98 1016.44 1016.60 1016.98 1017.53 1018.40 1018.76 1019.15
1024.94 1024.87 1024.83 1024.79 1024.67 1024.38 1024.02 1023.57 1023.06 1022.56 1022.06 1021.59 1021.12 1020.59 1020.04 1019.45 1018.84 1018.33 1017.83 1017.36 1016.98 1016.62 1016.40 1016.23 1015.87 1015.68 1015.62 1015.55 1015.31 1015.08 1014.94 1014.77 1014.57 1014.90 1015.00 1015.43 1015.73 1015.98 1016.51 1016.84 1017.88 1018.21 1018.93
1025.02 1024.97 1024.84 1024.74 1024.54 1024.17 1023.86 1023.43 1022.89 1022.42 1021.96 1021.42 1020.88 1020.34 1019.72 1019.10 1018.45 1018.09 1017.50 1017.13 1016.72 1016.26 1015.80 1015.56 1015.46 1015.21 1015.15 1015.02 1015.03 1014.90 1014.73 1014.51 1014.36 1014.56 1014.79 1015.16 1015.47 1015.82 1016.36 1016.73 1017.41 1017.96 1019.77
1024.93 1024.90 1024.76 1024.62 1024.41 1024.01 1023.58 1023.21 1022.75 1022.22 1021.70 1021.19 1020.63 1020.03 1019.71 1018.80 1018.04 1017.73 1017.05 1016.76 1016.36 1015.94 1015.63 1015.35 1015.11 1014.73 1014.52 1014.48 1014.52 1014.55 1014.61 1014.66 1014.53 1014.66 1014.74 1015.14 1015.64 1015.66 1016.01 1016.67 1017.49 1018.25 1019.03
1025.05 1024.87 1024.60 1024.48 1024.15 1023.60 1023.27 1022.87 1022.36 1022.10 1021.39 1020.94 1020.16 1019.71 1019.10 1018.28 1017.85 1017.36 1016.74 1016.34 1015.89 1015.66 1015.44 1015.30 1015.02 1014.82 1014.56 1014.21 1013.99 1014.28 1014.76 1015.07 1015.16 1015.25 1015.19 1015.24 1015.95 1016.24 1016.59 1016.84 1017.34 1018.05 1018.87
1025.16 1024.86 1024.44 1023.95 1023.87 1023.49 1022.98 1022.74 1022.21 1021.78 1021.26 1020.46 1019.79 1019.08 1018.51 1017.69 1017.27 1016.62 1016.20 1015.74 1015.45 1015.13 1015.03 1014.90 1014.73 1014.50 1014.34 1014.10 1014.07 1014.25 1014.66 1015.23 1015.38 1015.52 1015.99 1016.06 1016.45 1017.03 1017.25 1017.36 1017.75 1018.25 1018.83
1025.18 1024.88 1024.34 1023.90 1023.76 1023.28 1022.90 1022.36 1021.93 1021.63 1020.94 1020.23 1019.49 1018.39 1017.91 1017.21 1016.71 1016.28 1015.73 1015.58 1015.38 1015.08 1014.84 1014.79 1014.69 1014.42 1014.18 1014.11 1014.15 1014.40 1014.80 1015.58 1016.12 1016.10 1016.45 1016.88 1017.09 1017.66 1018.00 1018.27 1018.69 1019.07 1019.50
1025.32 1024.71 1023.92 1023.48 1023.25 1022.74 1022.30 1021.78 1021.23 1020.96 1020.46 1019.53 1019.06 1018.25 1017.38 1016.95 1016.36 1015.95 1015.58 1015.34 1015.16 1015.01 1014.89 1014.86 1014.73 1014.25 1014.26 1014.25 1014.43 1014.94 1015.38 1016.04 1016.49 1016.77 1017.24 1017.50 1017.75 1018.30 1018.76 1019.26 1019.85 1020.29 1020.78
1025.23 1024.50 1023.76 1023.08 1022.29 1021.86 1021.47 1021.20 1020.73 1020.10 1019.54 1018.96 1018.39 1017.80 1017.24 1016.72 1016.28 1015.80 1015.62 1015.49 1015.11 1014.98 1014.66 1014.80 1014.71 1014.68 1014.77 1014.99 1015.22 1015.58 1016.01 1016.45 1016.79 1017.14 1017.49 1018.12 1018.68 1018.98 1019.35 1019.67 1020.38 1020.90 1021.44
1025.01 1024.30 1023.61 1022.79 1022.14 1021.27 1020.56 1020.06 1019.70 1019.00 1018.72 1017.99 1017.45 1017.16 1016.89 1016.44 1015.99 1015.67 1015.56 1015.42 1015.19 1015.02 1014.95 1015.02 1015.16 1015.35 1015.62 1015.87 1016.16 1016.51 1016.91 1017.20 1017.54 1017.99 1018.30 1018.70 1019.15 1019.41 1019.94 1020.32 1020.73 1021.35 1021.77
1025.11 1024.29 1023.57 1022.83 1022.00 1021.22 1020.25 1018.94 1018.70 1018.03 1017.36 1016.68 1016.32 1016.13 1015.94 1015.94 1015.66 1015.43 1015.46 1015.35 1015.22 1015.26 1015.50 1015.72 1015.99 1016.23 1016.50 1016.83 1017.21 1017.71 1018.08 1018.30 1018.56 1018.80 1019.00 1019.19 1019.66 1020.05 1020.58 1021.03 1021.35 1021.57 1022.12
1025.35 1024.22 1023.43 1022.69 1021.86 1020.95 1020.11 1019.30 1017.90 1016.72 1016.46 1016.07 1015.70 1015.54 1015.42 1015.49 1015.25 1015.18 1015.27 1015.33 1015.39 1015.69 1016.19 1016.70 1016.90 1017.20 1017.51 1017.82 1018.11 1018.47 1018.94 1019.30 1019.36 1019.48 1019.71 1019.93 1020.28 1020.82 1021.16 1021.46 1021.84 1022.35 1023.14
1024.78 1023.98 1023.21 1022.19 1021.46 1020.62 1019.68 1018.55 1017.70 1017.09 1016.24 1015.83 1015.68 1015.26 1015.12 1015.15 1015.03 1015.17 1015.26 1015.67 1016.15 1016.62 1017.14 1017.64 1018.12 1018.41 1018.72 1019.01 1019.28 1019.52 1019.87 1019.98 1020.22 1020.60 1020.95 1021.20 1021.26 1021.42 1021.87 1022.28 1022.67 1022.98 1023.51
1024.12 1023.23 1022.45 1021.58 1020.65 1019.82 1018.96 1018.04 1017.10 1016.36 1015.86 1015.89 1015.64 1015.31 1015.14 1015.00 1015.06 1015.31 1015.62 1016.16 1016.95 1017.73 1018.33 1018.80 1019.22 1019.52 1019.77 1020.00 1020.29 1020.51 1020.69 1021.11 1021.56 1021.85 1022.07 1022.11 1022.19 1022.22 1022.69 1023.10 1023.39 1023.57 1023.89
1023.43 1022.64 1021.90 1020.97 1019.98 1018.97 1018.10 1017.09 1016.01 1015.56 1015.30 1015.39 1015.53 1015.55 1015.75 1015.85 1016.07 1016.48 1016.89 1017.22 1017.76 1018.54 1019.24 1019.71 1020.28 1020.56 1020.80 1020.90 1021.06 1021.36 1021.84 1022.22 1022.48 1022.65 1022.74 1022.79 1022.95 1022.88 1023.29 1023.66 1024.00 1024.43 1024.78
1022.87 1021.90 1021.15 1020.28 1019.28 1018.23 1017.15 1016.21 1015.13 1014.78 1014.69 1014.80 1015.10 1015.41 1015.61 1016.13 1016.94 1017.47 1017.79 1018.05 1018.65 1019.35 1019.97 1020.39 1020.85 1021.25 1021.49 1021.70 1021.95 1022.41 1022.66 1022.84 1023.01 1023.12 1023.37 1023.70 1023.72 1023.90 1024.26 1024.50 1024.87 1025.03 1025.31
1022.28 1021.29 1020.39 1019.41 1018.37 1017.34 1016.30 1015.31 1014.26 1013.99 1014.08 1014.42 1014.95 1015.27 1015.55 1016.33 1017.39 1018.42 1018.71 1019.07 1019.75 1020.16 1020.62 1020.87 1021.46 1021.91 1022.01 1022.21 1022.28 1022.52 1023.07 1023.31 1023.50 1023.70 1023.92 1024.13 1024.34 1024.65 1024.76 1025.10 1025.54 1025.78 1025.80
1021.24 1020.31 1019.39 1018.46 1017.56 1016.59 1015.59 1014.58 1013.73 1013.58 1013.83 1014.24 1014.91 1015.67 1016.38 1016.87 1018.07 1018.98 1019.27 1019.76 1020.20 1020.78 1021.32 1021.51 1021.94 1022.42 1022.80 1022.94 1022.83 1022.94 1023.09 1023.46 1023.81 1024.12 1024.15 1024.37 1024.65 1024.99 1025.27 1025.69 1026.07 1026.08 1026.02
1020.60 1019.66 1018.77 1017.84 1016.88 1015.89 1014.97 1014.04 1013.58 1013.64 1013.99 1014.49 1015.22 1016.16 1016.91 1017.59 1018.74 1019.47 1019.82 1020.26 1020.69 1021.31 1021.63 1021.98 1022.15 1022.43 1022.97 1023.30 1023.55 1023.74 1023.78 1024.07 1024.27 1024.27 1024.31 1024.52 1024.95 1025.32 1025.70 1025.95 1026.02 1026.19 1026.17
1020.12 1019.20 1018.36 1017.44 1016.42 1015.47 1014.68 1014.18 1014.03 1014.21 1014.64 1015.10 1015.87 1016.76 1017.59 1018.42 1019.44 1019.91 1020.23 1020.52 1020.95 1021.49 1022.00 1022.22 1022.36 1022.69 1022.91 1023.25 1023.48 1023.64 1023.78 1023.72 1024.09 1024.34 1024.69 1024.84 1024.98 1025.22 1025.49 1025.74 1026.05 1026.16 1026.14
1020.14 1019.33 1018.45 1017.47 1016.56 1015.78 1015.13 1014.89 1014.89 1015.01 1015.36 1015.92 1016.63 1017.41 1018.07 1019.05 1019.71 1020.10 1020.42 1020.73 1021.06 1021.41 1021.75 1022.08 1022.41 1022.65 1022.87 1023.05 1023.27 1023.46 1023.56 1023.62 1023.86 1024.17 1024.50 1024.69 1024.86 1025.10 1025.41 1025.68 1025.98 1026.03 1025.89
Wind_Speed
9 6 7 6 6 5 4 4 5 4 4 5 5 7 8 8 8 8 10 11 13 12 10 11 13 12 9 9 8 9 10 10 14 12 5 3 5 7 6 8 8 9 8
7 6 6 6 6 6 6 6 5 6 5 6 5 6 7 8 8 9 11 10 12 13 13 13 13 8 12 12 9 12 11 11 11 18 10 4 7 5 5 6 5 5 5
5 5 6 6 7 8 7 7 6 7 7 7 6 6 8 8 9 9 10 11 12 13 12 12 13 12 11 10 10 10 8 9 10 10 11 1 2 1 2 2 3 3 3
7 7 8 8 9 9 9 9 10 9 8 8 6 6 7 7 8 9 10 11 12 11 12 12 12 11 13 11 10 11 10 8 8 9 9 3 3 3 3 3 4 2 3
7 7 7 7 7 8 9 9 9 8 8 9 10 10 9 7 6 7 8 10 11 11 10 11 11 11 13 13 7 8 8 8 8 7 8 3 4 4 6 4 5 4 2
4 5 5 6 6 7 7 8 8 9 9 9 10 9 10 7 13 14 12 8 8 9 10 9 8 8 10 14 15 15 11 9 10 8 8 7 5 3 4 4 3 4 3
4 4 4 5 5 6 7 7 7 8 8 8 9 9 10 10 16 17 15 7 8 8 8 8 7 5 7 7 10 14 14 16 17 5 8 5 4 6 6 8 6 4 2
3 3 3 4 5 6 6 7 8 6 8 9 9 9 9 9 16 16 14 8 8 9 9 8 7 7 6 5 6 7 6 3 1 1 4 3 3 5 6 4 8 8 5
6 6 6 5 7 7 7 8 7 7 7 7 7 9 9 9 16 17 13 7 8 9 6 6 6 6 8 10 5 5 3 1 4 6 6 7 8 14 12 9 7 7 3
9 9 7 6 6 8 8 8 5 5 9 6 9 8 8 9 14 17 14 6 7 6 4 4 7 7 9 8 4 4 4 2 3 3 5 9 9 11 11 4 6 5 3
6 8 8 7 7 8 8 5 8 9 9 8 9 8 8 8 10 16 17 5 4 4 4 3 3 7 6 4 4 4 4 5 8 6 5 6 7 6 5 6 6 4 3
7 9 9 7 6 7 9 8 7 7 8 9 9 10 6 7 10 12 13 5 6 4 3 2 3 5 5 7 5 9 15 9 4 6 6 5 6 5 6 7 8 8 7
7 9 9 9 6 7 10 10 9 4 6 9 7 8 8 6 4 12 3 4 5 3 2 3 5 6 10 6 12 16 10 5 5 5 5 4 4 5 7 7 9 10 11
9 10 10 10 11 10 7 7 7 7 7 7 7 8 7 5 5 2 2 1 1 1 1 2 6 9 10 10 8 8 5 5 5 5 5 5 4 3 4 4 4 3 4
8 8 9 10 11 12 12 11 8 8 8 8 7 6 7 6 4 5 5 2 2 2 3 4 5 4 6 6 7 7 5 4 4 3 4 4 4 4 3 3 3 2 3
10 8 8 9 9 10 12 13 14 20 20 19 19 13 4 12 11 9 7 8 7 7 3 5 5 5 5 5 6 6 5 5 4 3 3 3 4 4 4 3 3 3 3
9 10 8 9 9 9 10 11 13 10 12 9 13 14 12 11 13 10 9 10 10 7 3 4 4 5 5 5 4 4 3 3 3 4 4 4 5 5 4 4 4 4 3
8 12 9 9 8 9 9 10 10 9 8 3 4 5 9 13 12 12 13 11 5 6 3 4 5 4 4 5 4 4 5 5 5 5 4 3 3 3 3 3 3 3 3
10 9 8 9 9 10 10 11 11 9 6 4 2 2 7 11 8 9 7 4 5 5 4 5 4 4 4 5 4 5 5 5 3 3 3 3 3 3 4 3 4 4 4
9 13 12 9 9 9 9 10 10 8 7 5 4 3 0 1 1 2 3 5 6 5 5 6 4 4 4 4 4 5 5 4 4 3 3 3 3 3 4 3 2 2 1
9 9 13 10 10 9 9 11 10 8 7 7 6 3 6 2 3 3 4 5 5 5 5 5 5 4 4 4 4 4 4 4 3 3 3 3 2 3 2 3 3 3 4
9 9 9 10 10 10 11 11 9 8 7 7 4 3 12 6 6 4 5 6 5 5 4 5 5 4 3 3 4 4 3 3 3 3 3 3 3 3 3 3 2 2 2
9 10 10 10 10 13 11 11 7 7 7 7 7 5 4 6 6 5 6 6 5 5 4 4 5 4 3 3 3 2 4 3 3 3 4 3 3 3 2 2 3 2 2
10 10 11 10 10 10 10 9 4 5 6 7 7 6 5 6 5 6 6 5 5 5 4 4 4 5 4 3 2 2 2 3 2 3 4 4 3 3 2 2 2 2 2
9 9 9 9 9 8 6 1 2 4 5 6 7 5 5 6 5 5 5 5 5 5 4 4 3 5 5 6 4 4 3 4 4 4 3 3 5 5 3 2 3 3 3
8 8 7 6 6 4 2 2 3 4 6 6 6 6 6 5 5 5 5 5 5 4 5 3 4 4 4 3 4 5 5 6 5 7 4 3 4 3 3 3 5 3 3
Wind_Direction
29 28 32 27 26 25 19 353 337 313 305 283 274 276 271 271 267 259 260 259 256 255 241 238 239 237 233 230 219 225 230 230 255 269 275 197 203 214 214 215 221 223 233
11 19 30 21 15 10 2 350 336 324 319 301 300 284 276 269 260 254 259 255 254 254 255 256 248 236 233 238 232 230 226 224 240 264 262 203 212 213 219 207 214 221 222
12 14 21 22 13 4 352 343 339 329 328 325 290 289 291 284 277 264 260 259 254 254 251 249 256 251 244 240 235 239 232 233 234 252 268 123 187 170 155 183 190 187 179
15 15 16 9 1 353 347 348 345 342 329 319 319 299 288 285 278 273 267 267 271 267 267 260 255 242 248 242 236 237 239 234 233 239 250 200 177 181 184 175 184 174 171
11 11 2 351 352 344 345 339 334 329 324 323 324 324 317 306 296 293 278 278 273 273 264 257 257 256 247 246 238 240 232 235 239 236 242 193 185 180 196 176 190 152 90
351 343 329 331 332 330 324 324 322 323 326 326 324 318 315 311 306 302 293 283 273 269 273 265 255 259 261 257 256 251 235 229 235 231 240 232 217 184 153 163 138 151 169
314 302 307 310 304 304 300 299 303 313 313 315 311 311 306 302 304 303 296 281 268 264 266 269 269 252 257 265 270 269 266 251 237 218 237 208 185 180 161 154 169 157 157
277 275 276 311 313 309 310 309 313 309 308 311 307 304 302 296 303 300 291 278 268 259 253 253 253 261 252 254 262 266 263 242 134 162 197 177 183 162 162 139 136 109 75
1 348 340 332 323 318 310 307 302 302 304 291 291 292 289 287 298 298 296 278 275 270 264 261 256 256 257 263 235 244 197 117 125 150 150 155 161 147 133 129 129 132 123
344 329 318 312 309 314 312 310 302 283 295 295 295 282 275 279 290 296 297 274 275 282 273 282 287 274 281 272 234 173 145 113 109 99 103 113 121 127 115 104 135 137 107
313 313 310 311 309 305 305 304 310 311 308 306 298 291 278 273 279 295 293 263 258 267 271 281 275 290 290 287 143 137 129 133 112 93 82 90 89 84 85 90 93 120 124
314 309 304 299 300 300 293 300 286 284 293 296 298 303 283 283 278 288 291 278 279 274 273 263 277 294 138 109 115 136 123 100 92 97 93 94 98 91 77 76 76 68 47
310 300 302 302 289 297 300 302 305 277 284 293 289 295 300 290 280 285 257 271 276 251 253 241 220 126 105 103 114 108 92 94 99 92 91 82 78 103 101 80 74 76 67
301 301 302 298 298 295 286 283 278 283 282 285 287 287 292 289 287 238 215 294 246 236 156 170 119 98 89 88 86 90 95 108 118 126 117 108 109 100 98 95 102 102 83
291 291 290 295 293 295 291 285 270 268 247 277 275 267 282 280 263 217 187 186 174 127 93 98 95 90 92 86 73 66 66 76 87 83 102 103 107 112 91 73 89 88 88
302 300 298 299 296 293 296 296 272 273 280 280 278 273 239 246 255 204 189 181 164 124 72 103 96 89 95 100 96 87 64 62 58 86 91 98 110 99 96 77 76 80 94
274 289 289 285 284 286 288 288 290 295 269 286 293 263 253 239 234 185 173 157 141 117 97 94 98 96 98 91 88 83 98 76 69 75 82 85 93 96 118 111 109 106 102
268 272 272 275 273 276 277 277 276 274 277 259 296 284 236 227 192 187 138 104 85 65 69 88 90 81 75 83 85 92 89 76 71 76 80 81 96 106 101 108 110 121 131
293 285 279 277 273 270 275 274 271 259 231 237 237 58 2 209 151 119 117 113 122 107 98 88 84 90 88 94 96 84 79 76 85 100 85 86 87 105 102 109 101 88 107
283 273 271 276 277 272 265 265 260 243 218 203 217 195 213 358 63 59 65 106 106 109 111 109 101 90 88 87 85 90 95 97 96 96 93 91 82 85 103 115 111 123 94
286 285 275 273 270 268 266 267 253 228 218 204 206 186 188 144 119 116 121 101 111 116 120 118 108 96 91 95 104 111 107 112 109 106 106 93 81 94 95 87 105 93 123
280 279 277 273 274 273 270 271 244 218 206 188 152 179 136 120 114 137 117 107 101 98 104 114 111 112 108 116 125 110 123 121 115 116 116 115 114 111 105 96 102 117 132
287 285 282 281 274 274 272 270 234 204 186 160 138 124 118 113 119 142 125 123 114 111 106 109 122 114 102 96 79 111 139 146 158 155 139 133 121 121 115 134 153 152 164
287 286 286 283 281 276 272 261 219 186 159 141 126 120 119 112 126 132 122 119 116 110 108 120 119 125 130 122 113 119 115 125 145 136 133 135 143 139 150 145 166 171 172
300 296 292 290 290 282 269 218 126 124 125 121 115 113 109 111 131 132 130 127 126 131 142 137 128 139 141 147 154 161 183 142 152 144 143 150 161 164 153 154 169 189 180
325 323 318 316 314 316 327 93 101 107 110 107 109 113 118 133 140 140 143 147 147 146 141 139 152 154 157 168 186 199 208 198 182 183 172 174 169 171 178 195 195 208 195